EW8418 Weather Reports


time (UTC)temp
C
wind
direction
speed
KPH
gust
KPH
rain 1hr
cm
rain 24hr
cm
rain mn
cm
humidity
%
barometer
mb
20260503181533 15 217 11.3 0.0 0.00 0.00 0.00 68 1013.1
20260503180037 15 197 11.3 0.0 0.00 0.00 0.00 70 1013.0
20260503174526 15 183 9.7 0.0 0.00 0.00 0.00 70 1013.0
20260503173022 14 212 9.7 0.0 0.00 0.00 0.00 73 1013.1
20260503171521 13 203 8.0 0.0 0.00 0.00 0.00 74 1013.2
20260503120121 11 240 1.6 0.0 0.00 0.00 0.00 84 1011.2
20260503081546 11 227 4.8 0.0 0.00 0.00 0.00 85 1012.2
20260503071543 11 246 4.8 0.0 0.00 0.00 0.00 85 1012.1
20260503054539 11 259 6.4 0.0 0.00 0.00 0.00 85 1012.6
20260503053040 11 234 6.4 0.0 0.00 0.00 0.00 85 1012.6
20260503051538 11 253 8.0 0.0 0.00 0.00 0.00 85 1012.5
20260503050037 11 221 4.8 0.0 0.00 0.00 0.00 86 1012.7
20260503044536 11 226 6.4 0.0 0.00 0.00 0.00 85 1012.6
20260503043041 11 255 8.0 0.0 0.00 0.00 0.00 85 1012.7
20260503041536 11 270 6.4 0.0 0.00 0.00 0.00 84 1012.5
20260503040045 11 240 6.4 0.0 0.00 0.00 0.00 84 1012.4
20260503034546 11 274 6.4 0.0 0.00 0.00 0.00 84 1012.2
20260503033041 11 238 4.8 0.0 0.00 0.00 0.00 84 1012.1
20260503031540 11 290 8.0 0.0 0.00 0.00 0.00 83 1011.8
20260503030046 11 227 8.0 0.0 0.00 0.00 0.00 83 1011.8
20260503024533 11 219 4.8 0.0 0.00 0.00 0.00 83 1011.8
20260503023033 11 262 4.8 0.0 0.00 0.00 0.00 82 1011.8
20260503021540 11 240 8.0 0.0 0.00 0.00 0.00 82 1011.8
20260503020032 12 252 8.0 0.0 0.00 0.00 0.00 81 1011.8
20260503014531 12 246 8.0 0.0 0.00 0.00 0.00 80 1011.9
20260503013030 12 236 9.7 0.0 0.00 0.00 0.00 79 1012.0
20260503011529 12 231 8.0 0.0 0.00 0.00 0.00 78 1012.0
20260503010029 13 264 6.4 0.0 0.00 0.00 0.00 77 1012.1
20260503004530 12 228 12.9 0.0 0.00 0.00 0.00 77 1012.1
20260503003028 13 230 12.9 0.0 0.00 0.00 0.00 75 1012.1
20260503001528 13 226 14.5 0.0 0.00 0.00 0.00 74 1012.0
20260503000033 14 250 12.9 0.0 0.00 0.00 0.00 72 1012.0
20260502234527 14 214 12.9 0.0 0.00 0.00 0.00 71 1012.2
20260502233026 15 255 16.1 0.0 0.00 0.00 0.00 70 1012.2
20260502231526 15 292 12.9 0.0 0.00 0.00 0.00 68 1012.2
20260502230024 16 248 16.1 0.0 0.00 0.00 0.00 68 1012.3
20260502224524 16 214 12.9 0.0 0.00 0.00 0.00 68 1012.6
20260502223024 16 230 12.9 0.0 0.00 0.00 0.00 68 1012.7
20260502221523 16 210 11.3 0.0 0.00 0.00 0.00 68 1012.8
20260502220022 16 257 12.9 0.0 0.00 0.00 0.00 68 1012.9
20260502214527 15 271 17.7 0.0 0.00 0.00 0.00 72 1012.9
20260502213016 16 242 17.7 0.0 0.00 0.00 0.00 70 1012.9
20260502211526 16 245 14.5 0.0 0.00 0.00 0.00 71 1013.0
20260502210011 16 214 11.3 0.0 0.00 0.00 0.00 74 1013.2
20260502204511 16 240 11.3 0.0 0.00 0.00 0.00 73 1013.3
20260502203010 15 169 12.9 0.0 0.00 0.00 0.00 76 1013.3
20260502201510 15 210 11.3 0.0 0.00 0.00 0.00 75 1013.5
20260502200007 15 202 11.3 0.0 0.00 0.00 0.00 74 1013.4
20260502194503 16 229 12.9 0.0 0.00 0.00 0.00 74 1013.4
20260502193102 16 200 14.5 0.0 0.00 0.00 0.00 74 1013.4
20260502191556 15 211 12.9 0.0 0.00 0.00 0.00 74 1013.4
20260502184555 16 245 11.3 0.0 0.00 0.00 0.00 73 1013.4
20260502183042 16 219 6.4 0.0 0.00 0.00 0.00 72 1013.4